RH
11 12 12 13 13 13 15 17 20 21 20 19 18 18 18 18 18 18 20 28 38 45 43 37 35 37 43 49 55 60 65 66 67 69 71 72 74 76 78 77 72 67
11 12 12 12 14 15 17 20 23 23 22 20 18 18 19 20 20 20 21 21 25 36 46 50 49 47 46 48 54 62 67 70 73 76 78 79 83 86 86 84 79 77
16 15 15 17 19 21 23 26 28 27 25 23 21 20 21 22 23 24 25 24 23 25 33 43 52 58 60 58 58 62 68 74 78 82 86 88 93 95 93 92 93 94
24 23 24 25 26 29 31 32 33 33 32 29 26 24 23 24 25 26 28 29 29 27 26 30 39 52 66 74 74 71 71 75 81 88 93 97 100 100 98 98 100 101
29 30 30 31 31 33 34 35 36 38 39 38 33 28 26 27 27 29 32 34 35 34 31 31 34 41 53 68 80 85 85 83 84 91 98 100 101 100 100 100 100 100
31 32 33 34 34 35 36 37 39 41 42 44 40 32 28 29 30 31 36 39 38 34 31 31 33 36 42 51 63 78 91 95 94 96 101 101 100 100 100 100 100 101
32 34 36 37 37 38 39 39 41 45 46 47 45 38 31 30 33 36 38 37 32 28 29 33 38 45 52 57 61 67 81 96 101 100 101 100 100 101 100 100 101 101
34 36 38 40 42 42 42 43 45 49 51 51 48 42 35 31 32 34 33 29 27 30 37 46 56 65 72 76 78 76 79 92 100 100 100 100 100 100 100 100 101 100
35 38 40 43 46 47 47 48 50 53 56 54 51 45 37 33 31 29 28 29 34 41 51 61 70 79 85 87 89 87 87 93 99 100 100 100 100 100 100 100 100 100
37 39 43 46 49 52 53 52 53 57 59 58 54 47 39 35 32 31 33 38 45 53 62 72 80 87 92 92 92 91 92 97 100 100 100 100 100 100 100 100 101 101
39 42 46 50 54 57 57 56 57 60 64 65 61 52 43 37 35 37 42 47 55 64 73 83 90 94 95 93 91 93 96 99 100 100 100 100 100 100 100 100 101 100
41 46 50 54 58 61 62 62 63 65 70 74 72 62 50 43 42 45 51 57 66 76 85 93 97 97 95 93 94 97 100 101 100 100 100 100 100 100 101 100 100 100
46 51 56 60 64 66 67 67 69 73 79 84 83 75 63 55 53 56 62 69 79 88 95 99 99 97 95 96 98 100 101 100 100 100 100 100 100 100 101 100 100 101
52 58 62 66 68 69 71 73 76 81 86 91 91 84 75 68 66 69 76 83 91 98 101 101 100 98 98 100 101 100 100 100 100 100 100 100 101 100 100 101 100 101
58 63 67 70 72 72 75 78 82 88 93 95 94 89 83 80 80 84 91 96 99 101 101 101 101 101 100 100 100 100 100 100 100 100 100 101 100 100 100 101 101 103
63 67 71 73 74 76 80 85 90 95 96 96 95 93 91 92 94 97 99 101 101 101 101 102 102 102 101 100 100 100 100 101 100 100 101 100 100 101 100 100 102 104
70 73 74 76 79 83 89 94 97 99 98 97 97 97 98 99 100 101 101 101 101 100 101 101 101 101 101 100 101 100 100 100 100 100 100 100 101 100 100 102 104 99
77 79 81 85 90 95 98 100 100 100 100 100 100 100 101 101 100 100 101 101 101 101 101 101 100 100 100 100 101 100 100 101 100 100 100 100 100 101 102 103 98 90
87 89 93 96 99 100 101 100 100 101 100 101 101 100 100 100 100 101 101 101 101 101 101 100 100 100 100 100 100 100 101 100 99 101 101 101 101 102 102 96 90 90
97 99 100 100 100 101 100 100 100 100 100 100 100 100 100 100 100 101 101 101 101 101 101 100 101 100 100 101 100 100 101 99 97 97 100 102 102 99 94 90 91 94
100 100 101 100 100 100 100 100 100 100 100 100 100 100 101 101 101 101 101 101 100 101 101 100 101 100 100 100 100 100 101 100 97 95 94 96 95 91 89 91 94 90
100 100 101 100 100 100 100 100 101 100 101 101 101 101 101 101 102 101 101 101 100 101 101 100 100 100 100 100 100 100 100 100 100 97 93 90 88 86 88 89 86 78
100 100 101 100 101 101 101 101 101 102 102 102 101 102 101 101 101 101 100 101 100 100 100 100 100 100 100 100 100 100 101 100 99 97 94 92 91 90 88 84 77 69
101 101 101 101 101 101 102 102 102 102 102 101 101 101 101 101 101 100 100 100 100 100 100 100 100 100 100 100 100 101 102 101 99 98 98 96 94 90 84 76 68 61
101 101 101 101 101 102 102 102 102 101 101 101 101 101 101 102 102 101 101 101 101 101 100 100 100 100 100 100 101 102 102 101 101 100 98 95 89 83 75 67 61 56
100 101 101 102 102 103 102 102 101 101 101 102 102 102 103 103 102 102 102 102 101 101 101 100 100 100 100 102 102 101 102 103 101 97 93 88 81 73 65 60 57 55
Wind_Speed
49 50 50 51 52 52 52 53 53 53 54 56 56 56 55 55 54 54 55 55 54 54 54 55 57 58 58 58 58 57 57 57 56 56 55 56 56 56 57 57 56 55
50 51 52 53 53 54 54 54 53 53 54 56 57 57 57 56 55 55 55 55 55 55 55 56 57 58 59 60 60 59 58 58 58 57 57 57 57 57 59 59 59 57
50 51 53 54 55 55 55 54 54 54 54 55 57 57 57 57 57 56 56 55 55 55 55 56 57 59 60 61 61 61 60 60 59 59 59 58 58 58 60 60 59 59
50 51 53 54 54 54 53 53 53 53 53 54 55 56 57 57 57 57 57 56 55 55 56 56 57 58 60 61 62 62 62 62 61 61 61 60 59 59 59 60 60 60
49 50 52 52 53 52 51 52 52 51 52 52 53 54 56 57 58 58 58 57 56 56 55 56 56 57 58 59 61 63 64 64 63 63 62 61 60 59 60 61 62 61
49 50 50 51 51 52 52 52 52 51 51 51 51 52 54 55 57 58 58 57 56 55 55 55 55 55 56 57 59 61 63 65 65 65 64 63 62 61 62 63 63 62
49 49 50 50 51 52 53 53 52 51 51 50 50 51 52 53 55 56 57 56 55 54 54 54 55 56 58 59 59 60 61 63 66 67 66 65 64 64 64 65 63 61
50 50 51 51 51 52 53 53 52 51 50 49 49 50 51 52 54 55 55 55 54 54 55 56 58 59 60 61 61 61 61 62 64 66 66 65 64 65 64 63 60 58
51 52 52 52 52 52 52 52 52 51 50 49 49 49 50 52 53 54 54 54 54 55 57 58 59 59 59 60 61 61 60 60 62 63 63 62 62 61 59 57 56 56
52 53 53 54 53 53 52 52 52 51 50 50 49 49 50 52 53 54 54 55 55 56 57 57 58 58 58 58 59 59 58 57 59 59 59 57 56 55 53 52 54 55
52 53 54 54 54 54 53 52 52 52 51 51 50 50 51 52 54 54 55 55 56 56 56 57 57 56 56 56 57 57 55 55 56 56 54 52 49 48 49 51 53 55
52 52 53 54 54 54 54 53 53 52 52 51 51 51 52 53 54 55 55 55 56 57 57 57 56 55 55 55 54 54 53 53 53 51 48 46 45 47 49 52 54 55
52 52 53 54 54 54 54 53 53 52 53 52 52 52 53 54 55 55 55 56 57 57 57 55 54 53 53 52 51 51 51 50 48 45 44 45 46 48 50 52 54 55
51 52 52 53 53 54 53 53 53 53 53 53 53 54 54 54 55 55 56 57 57 56 55 53 53 51 50 49 48 48 47 45 44 44 45 46 47 49 51 53 54 55
50 51 52 52 52 53 53 53 53 53 53 54 54 54 54 55 55 56 56 56 55 54 53 52 50 49 48 47 47 46 46 45 46 46 46 47 48 50 52 54 55 55
50 50 51 51 52 52 53 53 53 53 53 54 54 54 54 55 55 55 55 55 54 52 51 49 48 47 47 47 47 47 46 46 47 47 47 48 50 52 53 54 55 54
49 49 50 50 51 52 52 52 52 53 53 53 54 54 54 54 54 54 54 53 51 50 48 48 47 47 48 48 47 47 46 47 47 47 47 49 51 52 53 54 54 53
48 49 49 50 50 51 51 51 51 51 52 52 53 53 53 54 53 53 52 51 49 48 47 47 47 47 48 47 47 46 46 46 46 46 48 49 51 53 54 54 53 52
48 49 49 49 49 49 49 49 50 50 50 51 51 52 52 53 52 51 50 49 49 48 48 48 48 47 46 45 45 44 45 46 46 47 48 50 52 54 54 53 52 50
48 48 48 48 48 48 48 48 48 48 49 50 50 51 51 50 50 49 49 49 49 48 48 48 47 46 44 43 43 43 43 46 47 48 50 51 53 53 52 52 50 49
46 46 46 46 46 46 46 46 46 47 48 48 49 49 49 49 48 49 48 48 48 47 46 46 45 43 42 41 42 42 43 45 48 51 52 52 52 52 51 50 48 47
45 45 45 45 44 44 44 44 45 46 46 47 47 47 48 48 47 47 47 46 46 45 45 44 43 42 41 41 41 42 44 46 49 51 51 51 51 51 51 50 48 46
44 44 43 43 43 43 43 44 44 45 46 46 47 46 46 46 46 46 45 44 44 43 43 43 42 41 41 41 42 43 45 47 48 48 49 50 50 50 50 50 49 48
43 42 42 42 42 43 43 44 45 45 45 46 46 45 45 45 45 45 44 43 43 42 42 42 41 40 40 41 42 43 44 45 46 47 48 49 49 49 49 48 48 48
42 42 42 42 42 43 43 44 44 45 45 45 45 45 45 44 44 44 43 42 42 41 41 41 40 40 40 40 40 41 42 43 45 47 48 49 49 48 48 48 48 48
41 41 42 42 42 42 43 43 44 44 44 44 44 44 44 44 43 43 42 41 41 40 40 40 40 39 38 37 38 39 41 43 46 47 48 48 48 48 48 48 48 47
Wind_Direction
283 283 284 285 285 286 286 286 286 285 284 284 284 285 285 284 283 281 278 276 274 273 273 274 275 276 277 278 279 280 281 282 283 284 284 286 288 289 290 292 293 294
281 282 283 284 284 285 285 285 284 283 282 282 283 283 284 284 284 283 282 280 277 275 273 273 274 275 275 276 277 277 278 279 280 281 282 283 285 286 289 292 293 294
280 281 281 282 283 283 284 284 282 281 281 281 281 282 282 283 283 283 282 281 280 278 276 274 274 274 274 274 275 275 276 277 278 279 280 280 281 284 289 291 290 289
281 281 281 281 281 282 282 282 281 281 281 281 281 281 281 281 281 282 282 282 282 280 279 277 276 275 274 273 273 273 273 274 275 276 277 278 279 283 287 286 284 283
282 282 281 281 281 281 281 281 281 281 282 282 282 281 279 279 280 280 282 282 283 282 281 280 278 277 276 275 273 272 271 271 272 274 275 276 277 279 281 280 279 279
284 284 284 283 283 283 282 281 281 282 282 282 282 281 279 278 279 280 281 282 283 282 281 280 279 279 278 277 276 274 272 270 270 271 272 273 274 275 276 276 276 277
287 286 285 284 284 284 284 283 283 283 283 282 281 280 279 278 278 279 280 281 282 281 280 280 280 280 280 279 278 277 275 272 269 269 269 271 273 273 274 275 275 275
288 287 286 285 285 285 285 285 285 285 284 282 280 279 279 278 278 278 279 280 280 279 279 280 281 281 281 281 279 278 276 275 272 270 270 271 272 272 273 273 273 273
288 287 286 286 285 286 286 285 285 285 284 282 281 279 279 278 278 278 278 278 278 278 279 280 282 283 283 281 280 278 277 276 275 273 271 271 271 272 272 271 271 273
287 286 285 285 286 286 286 286 285 284 283 283 281 280 279 278 277 277 277 277 277 278 280 282 283 284 283 281 280 279 278 277 276 273 272 271 271 270 269 269 271 276
287 285 283 284 285 286 286 285 284 283 283 283 282 281 279 278 277 276 276 277 278 280 282 283 284 283 282 280 280 279 278 277 276 274 272 270 268 267 268 271 275 278
287 284 283 283 284 285 286 285 284 283 283 283 282 281 279 278 277 277 277 278 280 282 283 284 283 282 281 280 279 278 278 276 275 272 270 267 267 269 271 274 276 279
287 284 283 283 284 285 285 285 284 284 283 283 283 281 280 278 278 278 279 280 282 283 284 284 283 282 281 280 278 277 276 273 271 269 268 269 270 272 273 274 276 279
287 284 283 283 284 284 285 285 285 285 284 284 283 281 280 279 279 279 281 282 283 284 284 284 283 281 280 278 277 275 272 271 271 272 272 272 272 272 272 274 277 279
287 285 284 283 283 284 285 286 286 285 284 284 282 281 280 280 280 281 282 284 284 285 284 283 281 279 277 276 274 273 273 273 274 274 273 272 271 271 272 274 276 278
287 285 284 283 284 285 286 286 286 285 284 283 282 282 282 282 283 283 284 285 285 284 283 281 280 278 276 275 274 274 275 274 273 272 271 270 270 271 272 274 276 277
287 285 284 285 285 286 286 286 285 285 284 283 283 283 283 283 284 285 285 285 285 284 282 280 279 278 277 276 276 275 274 273 272 270 269 268 269 270 272 274 276 276
287 286 286 287 287 287 287 286 286 285 285 285 284 284 285 285 285 285 285 285 284 282 281 280 279 277 277 276 276 274 273 271 269 268 268 268 269 271 272 274 275 276
288 288 288 288 288 288 288 287 286 286 286 285 285 285 285 285 284 284 284 283 282 281 280 279 277 276 276 275 274 272 270 269 268 267 267 268 270 271 273 273 274 276
290 290 290 289 289 289 288 288 287 286 286 285 284 284 284 283 283 283 283 282 281 280 279 278 277 276 275 273 271 269 268 268 268 267 267 268 269 270 271 273 275 277
291 291 291 290 290 289 288 288 286 285 284 284 283 283 283 283 283 283 282 282 281 280 279 278 278 276 274 271 269 267 266 267 268 269 269 269 269 269 270 272 274 275
293 292 291 290 290 288 287 287 286 285 284 284 284 284 284 284 284 283 283 282 281 281 280 279 277 275 272 269 267 266 265 266 267 269 270 270 271 272 273 275 276 277
293 292 292 290 289 288 288 287 287 286 286 286 286 286 285 285 285 284 283 283 282 281 280 279 276 273 270 267 266 265 265 266 267 268 269 271 273 274 276 278 280 281
294 293 292 291 290 290 289 289 288 287 287 287 287 286 286 286 285 285 284 284 283 281 280 278 275 271 268 266 265 265 265 266 267 268 269 271 273 275 278 280 281 282
295 294 293 292 292 292 291 290 289 289 289 288 288 287 287 287 286 286 285 284 283 281 279 277 274 271 268 266 266 266 266 267 268 269 271 273 274 277 279 280 281 282
296 296 295 295 294 293 292 291 291 291 290 289 289 289 289 288 288 287 286 285 283 281 279 276 274 272 269 267 266 267 268 270 271 272 274 275 277 278 279 280 281 282